Starlink 11108

operational
NORAD ID: 59712 Int'l Des: 2024-088 Owner: SPXS Country: US Constellation: starlink
LEOCIRCULAR

About Starlink 11108

Description loading...

Live Position

Loading 3D Globe...

Upcoming Passes

Altitude History

Altitude vs Time

uPlot chart will show altitude changes over time

Two-Line Element Set

1 59712U 24088E 26015.73757667 .00000244 00000-0 68641-5 0 9998
2 59712 53.1578 227.4450 0000895 88.2610 271.8510 15.69721360 97950
Epoch: Jan 15, 2026 • Age: 10 hours

Current Status

Altitude 373.4 km
Velocity 7.69 km/s
Sub-Earth Point -40.21°S, 8.07°E
Launch Date May 10, 2024
Age 1.6 years
Type internet

Technical Details

Classification Payload
Mass 960.00 kg
Dry Mass 910.00 kg
Total Mass 960.00 kg
Length 0.30 m
Diameter 4.10 m
Span 29.00 m
Shape Box + pan
Manufacturer SPXS
Bus Type Starlink V2MD
Phase Status In Orbit
Owner/State SPXS/US

Large Constellations

Loading constellations...